Location: ??????
(55.0357°N, 38.6195°E)
Time: 10:28:42
(UTC+00:00)

Cosmos 1933 Rocket - Pass Details

Date: 14 April 2024
Orbit: 602 x 628 km, 82.5° (Epoch: 18 May)

Event Time Altitude Azimuth Distance (km) Brightness Sun altitude
Rises 01:42:03 0° 348° (NNW) 2,905 7.2 -6.4°
Reaches altitude 10° 01:44:18 10° 350° (N) 1,990 6.4 -6.1°
Maximum altitude 01:48:43 82° 79° (ENE) 626 3.7 -5.5°
Drops below altitude 10° 01:53:03 10° 166° (SSE) 1,959 6.0 -5.0°
Sets 01:55:15 0° 168° (SSE) 2,855 6.8 -4.7°
